{"data":{"norad_id":62202,"epoch":"2026-05-25T05:24:40.070592Z","epoch_age_seconds":66232,"freshness":"FRESH","line1":"1 62202U 24229L   26145.22546378  .00021534  00000+0  78948-3 0  9999","line2":"2 62202  42.9986 198.7249 0001362 266.8754  93.1942 15.27591195 82263","mean_motion":15.27591195,"eccentricity":0.0001362,"inclination_deg":42.9986,"raan_deg":198.7249,"arg_perigee_deg":266.8754,"mean_anomaly_deg":93.1942,"bstar":0.00078948,"rev_number":8226,"period_min":94.266057876826,"perigee_km":482.08108540636,"apogee_km":483.95006336763,"semimajor_km":6861.152574387,"source":"CELESTRAK","updated_at":"2026-05-25T13:38:19.607947Z"}}